Location: Arezzo
(43.4170°N, 11.8830°E)
Time: 01:38:11
(UTC+01:00)

STARLINK-2711 - Pass Details

Date: 24 October 2021
Orbit: 545 x 549 km, 53.1° (Epoch: 28 November)

Event Time Altitude Azimuth Distance (km) Brightness Sun altitude
Rises 06:30:43 0° 208° (SSW) 2,695 6.9 -12.8°
Reaches altitude 10° 06:33:05 10° 198° (SSW) 1,806 6.1 -12.4°
Maximum altitude 06:36:46 33° 134° (SE) 937 5.3 -11.7°
Drops below altitude 10° 06:40:29 10° 70° (ENE) 1,819 7.4 -11.0°
Sets 06:42:52 0° 61° (ENE) 2,716 8.1 -10.6°
